[[{"header":{"parameterUnit":"m.s-1","parameterCategory":1,"la1":30.2991,"la2":30.254,"lo1":-89.0895,"lo2":-89.0444,"dy":0.0017,"dx":0.0017,"nx":28,"ny":28,"refTime":"2024-10-04T09:00:00:Z","depth":0,"parameterNumber":2,"parameterNumberName":"U-component_of_WINDS"},"data":[0,0,0,0,0,0,0,0,0,0,0,0,0,0,0,0,0,0,0,0,0,0,0,0,0,0,0,0,0,0,0,0,0,0,0,0,0,0,0,0,0,0,0,0,0,0,0,0,0,0,0,0,0,0,0,0,0,0,-4.3797,-4.3798,0,-4.3858,-4.3859,-4.386,-4.374,-4.3736,-4.3732,-4.3728,-4.3792,-4.3797,-4.3803,0,0,0,0,0,0,0,0,0,0,0,0,0,-4.3577,-4.3581,-4.3797,-4.3798,-4.3799,-4.3858,-4.3859,-4.386,-4.374,-4.3736,-4.3731,-4.3726,-4.379,-4.3797,-4.3803,0,0,0,0,0,0,0,0,0,0,0,0,0,-4.3659,-4.3583,-4.3797,-4.3746,-4.3742,-4.3858,-4.3859,-4.386,-4.3742,-4.3736,-4.373,-4.3724,-4.3788,-4.3796,-4.3804,-4.3973,0,0,-4.3829,-4.3832,0,0,0,0,0,0,0,0,-4.3654,-4.3667,-4.3753,-4.375,-4.3746,-4.3785,-4.3805,-4.3898,-4.3743,-4.3742,-4.3728,-4.3721,-4.3795,-4.3802,-4.3827,-4.3976,-4.3978,-4.383,-4.3835,-4.3838,-4.384,0,0,0,0,0,0,0,-4.3649,-4.3664,-4.3821,-4.3754,-4.375,-4.372,-4.3725,-4.3822,-4.3801,-4.3741,-4.3733,-4.3742,-4.3792,-4.3819,-4.3827,-4.3979,-4.3829,-4.3837,-4.3842,-4.3845,-4.427,-4.4276,0,0,0,0,0,0,-4.3649,-4.366,-4.3819,-4.3823,-4.3684,-4.3729,-4.3735,-4.3779,-4.3799,-4.3797,-4.3747,-4.3736,-4.3808,-4.3818,-4.3829,-4.4028,-4.3838,-4.3846,-4.385,-4.4264,-4.4271,-4.4278,0,0,0,0,0,0,-4.3645,-4.3665,-4.3817,-4.3739,-4.3756,-4.3739,-4.3789,-4.3783,-4.381,-4.3803,-4.3799,-4.3779,-4.3804,-4.3818,-4.3938,-4.4029,-4.3849,-4.3856,-4.4256,-4.4266,-4.4275,-4.4428,0,0,0,0,0,0,-4.3639,-4.3664,-4.3728,-4.3741,-4.3761,-4.3925,-4.3795,-4.3788,-4.3824,-4.3811,-4.3832,-4.383,-4.38,-4.3926,-4.3946,-4.4037,-4.3863,-4.4248,-4.426,-4.4272,-4.4415,-4.4442,-4.4465,0,0,0,0,0,-4.3632,-4.3769,-4.3732,-4.3752,-4.384,-4.3931,-4.3942,-4.3904,-4.3832,-4.3896,-4.3892,-4.3829,-4.4015,-4.394,-4.3961,-4.4055,-4.4242,-4.4257,-4.4271,-4.4404,-4.4437,-4.4464,0,0,0,0,0,0,-4.3767,-4.377,-4.3729,-4.3874,-4.3903,-4.391,-4.399,-4.394,-4.3991,-4.3976,-4.3927,-4.3933,-4.4063,-4.4071,-4.3987,-4.4219,-4.4116,-4.4136,-4.421,-4.4241,-4.4266,-4.4262,-4.387,0,0,0,0,0,-4.3813,-4.3886,-4.3884,-4.4013,-4.403,-4.4008,-4.4046,-4.4014,-4.4042,-4.4054,-4.4058,-4.4088,-4.4153,-4.4197,-4.4257,-4.4414,-4.4418,-4.449,-4.4515,-4.4535,-4.4553,-4.4638,-4.467,-4.4326,-4.4326,-4.4326,0,0,-4.3911,-4.3921,-4.397,-4.404,-4.4059,-4.4136,-4.4019,-4.4105,-4.4162,-4.4067,-4.4181,-4.4186,-4.4216,-4.4356,-4.4417,-4.4366,-4.4649,-4.4554,-4.457,-4.4577,-4.4656,-4.4689,-4.4718,-4.4336,-4.4334,-4.4332,0,0,-4.4127,-4.4142,-4.4251,-4.4272,-4.4302,-4.4286,-4.4312,-4.4327,-4.4326,-4.444,-4.437,-4.4437,-4.455,-4.4574,-4.4602,-4.4827,-4.4772,-4.4847,-4.4979,-4.5062,-4.5089,-4.5113,-4.5194,-4.5224,-4.4865,-4.4865,-4.4866,0,-4.4245,-4.4358,-4.4314,-4.4405,-4.4438,-4.4355,-4.4465,-4.4487,-4.4536,-4.4561,-4.4501,-4.4641,-4.4656,-4.4801,-4.4856,-4.488,-4.4909,-4.4846,-4.5088,-4.5112,-4.5134,-4.5211,-4.5241,-4.4874,-4.4873,-4.4872,-4.4872,0,-4.4501,-4.458,-4.4665,-4.4713,-4.4755,-4.4856,-4.4827,-4.4875,-4.4839,-4.483,-4.4947,-4.4961,-4.5022,-4.5053,-4.502,-4.5194,-4.5161,-4.5096,-4.4992,-4.5176,-4.5248,-4.5277,-4.4888,-4.4884,-4.4881,-4.4879,0,0,-4.4807,-4.4828,-4.486,-4.4881,-4.4907,-4.4968,-4.5064,-4.5123,-4.5166,-4.5201,-4.5281,-4.5378,-4.5318,-4.5349,-4.5317,-4.539,-4.5569,-4.5316,-4.5316,-4.5364,-4.5762,-4.5812,-4.5847,-4.5531,-4.5537,-4.5541,-4.576,0,-4.5023,-4.5188,-4.5151,-4.5315,-4.5388,-4.5309,-4.5393,-4.5419,-4.5412,-4.5473,-4.5465,-4.5536,-4.545,-4.5469,-4.5537,-4.5533,-4.5648,-4.5516,-4.5607,-4.561,-4.5603,-4.5884,-4.5938,-4.6144,-4.5788,-4.5793,-4.5796,0,-4.5297,-4.5343,-4.5514,-4.5528,-4.5557,-4.5634,-4.5685,-4.5744,-4.5771,-4.5761,-4.5795,-4.5749,-4.5845,-4.5738,-4.587,-4.578,-4.5815,-4.5818,-4.5825,-4.5834,-4.5716,-4.5902,-4.6209,-4.624,-4.584,-4.5836,-4.5833,0,-4.5505,-4.5609,-4.5724,-4.5744,-4.5764,-4.5819,-4.583,-4.585,-4.5888,-4.5933,-4.5957,-4.6012,-4.6043,-4.6087,-4.6057,-4.5982,-4.6194,-4.6085,-4.619,-4.6191,-4.6239,-4.6237,-4.6558,-4.6259,-4.6259,-4.6258,-4.6258,0,-4.5751,-4.5859,-4.5818,-4.589,-4.6008,-4.5964,-4.6082,-4.6084,-4.6103,-4.6173,-4.6108,-4.6176,-4.6131,-4.6195,-4.6172,-4.6285,-4.6299,-4.6295,-4.6288,-4.6302,-4.6303,-4.6325,-4.631,-4.6266,-4.6265,-4.6263,-4.6262,0,-4.6004,-4.598,-4.6101,-4.6109,-4.6114,-4.6201,-4.6207,-4.6274,-4.6262,-4.6352,-4.6371,-4.6352,-4.6424,-4.6398,-4.6475,-4.6459,-4.6604,-4.6577,-4.6595,-4.6589,-4.6696,-4.6687,-4.7043,-4.7088,-4.676,-4.6763,-4.6765,0,-4.6163,-4.6244,-4.6261,-4.6303,-4.6318,-4.6387,-4.6425,-4.6384,-4.6427,-4.6463,-4.6526,-4.6592,-4.6643,-4.6761,-4.6755,-4.6814,-4.6789,-4.691,-4.6798,-4.6809,-4.6793,-4.6789,-4.6797,-4.6933,-4.6937,-4.694,-4.6942,0,-4.6449,-4.6433,-4.6491,-4.6545,-4.6592,-4.6633,-4.6667,-4.6706,-4.6666,-4.6718,-4.679,-4.683,-4.6908,-4.6975,-4.7027,-4.7037,-4.6985,-4.6977,-4.7005,-4.7021,-4.7029,-4.7027,-4.6658,-4.697,-4.6967,-4.6965,-4.6964,-4.6963,-4.6661,-4.673,-4.6752,-4.6818,-4.684,-4.6874,-4.6937,-4.6932,-4.6992,-4.7052,-4.7024,-4.7108,-4.7132,-4.7197,-4.7215,-4.7281,-4.7234,-4.7274,-4.7284,-4.7295,-4.7309,-4.7017,-4.729,-4.7289,-4.7288,-4.7288,-4.7287,0,-4.6945,-4.6955,-4.7016,-4.7067,-4.7119,-4.7063,-4.7098,-4.7146,-4.7221,-4.7247,-4.7299,-4.7382,-4.7446,-4.7445,-4.7504,-4.7557,-4.7535,-4.7574,-4.7571,-4.7575,-4.7347,-4.7318,-4.7592,-4.7592,-4.7592,-4.7592,-4.7592,-4.7592,-4.7099,-4.7213,-4.7199,-4.7323,-4.7332,-4.7414,-4.7439,-4.747,-4.7491,-4.7587,-4.764,-4.7638,-4.7654,-4.7714,-4.777,-4.7768,-4.7794,-4.7844,-4.7833,-4.7621,-4.7591,-4.7562,-4.7534,-4.7849,-4.785,-4.8055,-4.8057,-4.8058]},{"header":{"parameterUnit":"m.s-1","parameterCategory":1,"la1":30.2991,"la2":30.254,"lo1":-89.0895,"lo2":-89.0444,"dy":0.0017,"dx":0.0017,"nx":28,"ny":28,"refTime":"2024-10-04T09:00:00:Z","depth":0,"parameterNumber":3,"parameterNumberName":"V-component_of_WINDS"},"data":[0,0,0,0,0,0,0,0,0,0,0,0,0,0,0,0,0,0,0,0,0,0,0,0,0,0,0,0,0,0,0,0,0,0,0,0,0,0,0,0,0,0,0,0,0,0,0,0,0,0,0,0,0,0,0,0,0,0,-4.0963,-4.0963,0,-4.0976,-4.0977,-4.0977,-4.0921,-4.0919,-4.0917,-4.0916,-4.0929,-4.0931,-4.0933,0,0,0,0,0,0,0,0,0,0,0,0,0,-4.0886,-4.0887,-4.0963,-4.0963,-4.0963,-4.0976,-4.0977,-4.0977,-4.0921,-4.0919,-4.0917,-4.0915,-4.0929,-4.0931,-4.0933,0,0,0,0,0,0,0,0,0,0,0,0,0,-4.0911,-4.0888,-4.0962,-4.0937,-4.0934,-4.0976,-4.0977,-4.0977,-4.0921,-4.0919,-4.0916,-4.0914,-4.0928,-4.0931,-4.0934,-4.1001,0,0,-4.0942,-4.0944,0,0,0,0,0,0,0,0,-4.091,-4.0914,-4.094,-4.0938,-4.0936,-4.0944,-4.0954,-4.0985,-4.0922,-4.0926,-4.0916,-4.0913,-4.0936,-4.0938,-4.0946,-4.1002,-4.1002,-4.0943,-4.0944,-4.0946,-4.0946,0,0,0,0,0,0,0,-4.0908,-4.0913,-4.0968,-4.0941,-4.0938,-4.0924,-4.0925,-4.096,-4.0945,-4.0926,-4.0922,-4.0924,-4.0935,-4.0944,-4.0946,-4.1002,-4.0943,-4.0945,-4.0947,-4.0948,-4.1112,-4.1114,0,0,0,0,0,0,-4.091,-4.0912,-4.0968,-4.0968,-4.0917,-4.0927,-4.0928,-4.0944,-4.0944,-4.0942,-4.0926,-4.0921,-4.094,-4.0943,-4.0947,-4.1024,-4.0946,-4.0948,-4.095,-4.1109,-4.1112,-4.1115,0,0,0,0,0,0,-4.0909,-4.0915,-4.0967,-4.0939,-4.0945,-4.0931,-4.0949,-4.0946,-4.0955,-4.0945,-4.0942,-4.0938,-4.0938,-4.0942,-4.0987,-4.1024,-4.095,-4.0952,-4.1106,-4.111,-4.1114,-4.1181,0,0,0,0,0,0,-4.0907,-4.0915,-4.0941,-4.094,-4.0946,-4.1009,-4.0952,-4.0948,-4.096,-4.0954,-4.0955,-4.0953,-4.0937,-4.0983,-4.099,-4.1026,-4.0954,-4.1103,-4.1108,-4.1112,-4.1175,-4.1187,-4.1196,0,0,0,0,0,-4.0904,-4.096,-4.0943,-4.095,-4.0979,-4.1011,-4.1014,-4.0994,-4.0963,-4.0989,-4.0982,-4.0953,-4.1019,-4.0989,-4.0996,-4.1033,-4.11,-4.1106,-4.1112,-4.1171,-4.1184,-4.1196,0,0,0,0,0,0,-4.0966,-4.096,-4.0941,-4.0998,-4.1005,-4.1001,-4.1033,-4.1009,-4.1026,-4.1019,-4.0993,-4.0994,-4.1043,-4.1043,-4.1009,-4.1098,-4.1054,-4.1062,-4.1096,-4.1109,-4.1119,-4.1118,-4.0957,0,0,0,0,0,-4.0987,-4.1014,-4.1006,-4.1057,-4.1062,-4.1047,-4.106,-4.1044,-4.105,-4.1053,-4.105,-4.1057,-4.1079,-4.1094,-4.1114,-4.1175,-4.1174,-4.1204,-4.1215,-4.1223,-4.123,-4.1261,-4.1274,-4.1134,-4.1134,-4.1134,0,0,-4.1029,-4.1029,-4.1047,-4.107,-4.1074,-4.1101,-4.105,-4.1082,-4.1102,-4.1058,-4.11,-4.1098,-4.1104,-4.1157,-4.118,-4.1158,-4.1268,-4.1231,-4.1238,-4.124,-4.1268,-4.1281,-4.1293,-4.1139,-4.1138,-4.1137,0,0,-4.112,-4.1123,-4.1165,-4.117,-4.1176,-4.1165,-4.1176,-4.1175,-4.1172,-4.1213,-4.118,-4.1203,-4.1242,-4.1248,-4.1255,-4.1347,-4.132,-4.1354,-4.1409,-4.1439,-4.145,-4.1459,-4.1491,-4.1502,-4.1361,-4.1361,-4.1361,0,-4.1172,-4.1213,-4.119,-4.1224,-4.1234,-4.1195,-4.1237,-4.1242,-4.1255,-4.1262,-4.1238,-4.1284,-4.1286,-4.1339,-4.1361,-4.1369,-4.1379,-4.1354,-4.145,-4.1459,-4.1468,-4.1498,-4.151,-4.1365,-4.1364,-4.1364,-4.1364,0,-4.1276,-4.1304,-4.1338,-4.135,-4.1364,-4.1402,-4.1384,-4.1401,-4.1383,-4.1374,-4.1416,-4.1417,-4.1435,-4.1446,-4.143,-4.1497,-4.1483,-4.1455,-4.141,-4.1486,-4.1513,-4.1524,-4.1371,-4.1369,-4.1368,-4.1367,0,0,-4.1408,-4.1405,-4.1418,-4.1422,-4.1425,-4.1447,-4.1482,-4.15,-4.1514,-4.1524,-4.1552,-4.1585,-4.1558,-4.1567,-4.155,-4.1577,-4.1648,-4.1545,-4.1545,-4.1563,-4.172,-4.1741,-4.1754,-4.163,-4.1633,-4.1634,-4.1719,0,-4.1496,-4.1556,-4.1536,-4.1597,-4.1622,-4.1585,-4.1615,-4.162,-4.1613,-4.1633,-4.1625,-4.1648,-4.1612,-4.1617,-4.1641,-4.1634,-4.1679,-4.1628,-4.1656,-4.1657,-4.1655,-4.1769,-4.1791,-4.1871,-4.173,-4.1731,-4.1733,0,-4.1608,-4.1621,-4.1684,-4.1681,-4.1691,-4.1719,-4.1732,-4.1752,-4.1756,-4.1749,-4.1759,-4.1736,-4.1769,-4.1725,-4.177,-4.1736,-4.1746,-4.1744,-4.1747,-4.1748,-4.1699,-4.1772,-4.1896,-4.1908,-4.175,-4.1748,-4.1747,0,-4.1696,-4.1729,-4.1771,-4.1776,-4.1774,-4.1794,-4.1794,-4.1796,-4.1807,-4.1819,-4.1826,-4.1842,-4.1851,-4.1863,-4.1845,-4.1815,-4.1892,-4.1847,-4.1886,-4.1887,-4.1904,-4.1903,-4.2031,-4.1912,-4.1912,-4.1912,-4.1912,0,-4.1796,-4.1836,-4.181,-4.1836,-4.1879,-4.1855,-4.1898,-4.1894,-4.1895,-4.1919,-4.1888,-4.191,-4.1885,-4.1905,-4.1891,-4.193,-4.1934,-4.1929,-4.1925,-4.1931,-4.1932,-4.1937,-4.1931,-4.1915,-4.1914,-4.1914,-4.1913,0,-4.1902,-4.1886,-4.1929,-4.1923,-4.1922,-4.1954,-4.1949,-4.1972,-4.1962,-4.1992,-4.1998,-4.1983,-4.2005,-4.1988,-4.201,-4.2,-4.2051,-4.2039,-4.2049,-4.2046,-4.2086,-4.2082,-4.222,-4.2237,-4.2109,-4.211,-4.2111,0,-4.1967,-4.1996,-4.1993,-4.2007,-4.2008,-4.2031,-4.2042,-4.2019,-4.2031,-4.2037,-4.2059,-4.2079,-4.2093,-4.2129,-4.212,-4.2136,-4.2124,-4.2171,-4.2126,-4.2132,-4.2123,-4.2122,-4.2124,-4.218,-4.2182,-4.2183,-4.2184,0,-4.2083,-4.2074,-4.2091,-4.2105,-4.2119,-4.2129,-4.2137,-4.2149,-4.2126,-4.2141,-4.2163,-4.2174,-4.2196,-4.2215,-4.2227,-4.2227,-4.2202,-4.2198,-4.2208,-4.2215,-4.2219,-4.2216,-4.2073,-4.2195,-4.2194,-4.2193,-4.2193,-4.2192,-4.217,-4.2194,-4.2195,-4.2214,-4.2217,-4.2225,-4.2245,-4.2238,-4.2255,-4.2271,-4.2256,-4.2282,-4.2284,-4.2298,-4.2301,-4.232,-4.2301,-4.2315,-4.2319,-4.2322,-4.2328,-4.2217,-4.2323,-4.2322,-4.2322,-4.2322,-4.2322,0,-4.2283,-4.2282,-4.23,-4.2311,-4.2326,-4.2301,-4.2307,-4.2322,-4.2345,-4.2349,-4.2363,-4.2387,-4.2405,-4.2397,-4.2412,-4.2429,-4.2418,-4.2434,-4.2432,-4.2432,-4.2345,-4.2334,-4.2443,-4.2443,-4.2443,-4.2443,-4.2443,-4.2443,-4.2344,-4.2383,-4.2373,-4.2412,-4.241,-4.2435,-4.2441,-4.2447,-4.245,-4.2478,-4.2493,-4.2487,-4.2485,-4.25,-4.2515,-4.2512,-4.2519,-4.2539,-4.2532,-4.2451,-4.2439,-4.2427,-4.2417,-4.2541,-4.2541,-4.2618,-4.2618,-4.2619]}]]